Updated05/08/2020 02:10 
 

GeoURL
free counters
Scottish Weather Network UK Weather Network Cumulus Top Weather Sites

Peebles Weather - Wunderground Map

Raw Data, Raw Data Expanded

Ignore low humidity and Dew Point values. Something wrong with the sensor.
Daytime temperatures are in direct sunlight so may be higher than official air temperature values.
As with any other website, we log your IP address and browser type in the server logs for diagnostic reasons. Cookies are used to record visit time and gauges preferences. No personal information is stored or processed.

All times are in local time (GMT, or BST in summer) unless specified.

2020/08/05 00:50 EGPH 050050Z 25010KT 6000 -RA OVC011 15/14 Q0999
15.2°C 0.9 mm 0.9 mm 16.2 mm 4.1 mph 6.9 mph 996.1 hPa 53% X-Ray Solar Flare Level
Planetary K-Index
Planetary K-Index History
Station Warn Rain Snow Flood Wind Ltng Heat Cold Glob Moon Temp Rain 1h Rain Wed Rain 24h Wind 10m Gust Pressure Hum Proton Levels

m Waning Gibbous Cool F1-WSW F: A: Kp:0 SSN:0

Wundermap

 

XHTML 1.1 | CSS